LAGEOS 1 AKM, 8822

Orbit data source: Space-Track

LAGEOS 1 AKM, 8822 is space debris originally from a launch on Tue, 04 May 1976 UTC launched from the Air Force Western Test Range (AFWTR). Debris objects in space refer to the collection of defunct objects orbiting the Earth. Examples of debris include non-operational satellites, rocket bodies, and fragments generated from explosions, collisions, or faulty payload assembly.

Loading next visibility...
Identifier
8822, 1976-039C
Orbit
Active
Country
Flag of USUS
Related business
Manufacturer
Thiokol/TE
Mission
Spacecraft
Bus & Motor
STAR 24, TE-M-604
Mass
218 kg wet, 16 kg dry
Launch date (UTC)
Icon of a cake. It is the launch day of the satellite!1976-05-04 (50 years ago)
Launch vehicle
Unknown
Launch site
Air Force Western Test Range (AFWTR)
Object type
Payload
Rocket body
Debris
Shape & HBR
Unknown
Radar Cross Section
Large (>1 m²)

Expand to show TLE details & history
Last TLE update: 1 day ago

TLE from 1 day ago
0 LAGEOS 1 AKM
1 08822U 76039C   26123.10108395  .00000004  00000-0  00000-0 0  9990
2 08822 109.8062 168.6497 0045929 307.5578  72.9541  6.38871619166272
Epoch: 2026-05-03T02:25Z
TLE epoch observation values (Epoch: 2026-05-03T02:25:33.653Z)
Latitude
19.71728°
Longitude
-96.14591°
Altitude
5,875.206 km
Speed
5.709 km/s
True Right ascension
10h 45m 00s
True Declination
19° 39' 14"
Sunlit
Object was in daylight at epoch
Visualization orbit readout
Latitude
Unknown
Longitude
Unknown
Altitude
Unknown
Speed
Unknown
Apparent Right ascension
Unknown
Apparent Declination
Unknown
Sunlit
N/A
Visualization observer readout
Local Sidereal Time
15:09:48
Azimuth
Unknown
Elevation
Unknown
Doppler factor
Unknown
Orbital elements
Apogee altitude
5,945.574 km
Perigee altitude
5,832.888 km
Semi-major axis
12,267.368 km
Eccentricity
0.00459
Inclination
109.8062°
RAAN
168.6497°
Arg. of periapsis
307.5578°
True anomaly
73.45813°
Mean anomaly
72.9541°
Eccentric anomaly
73.20603°
Mean motion
1.59741 °/min
Orbital period
225.36 mins
BSTAR
0
Loading maneuver chart data...
Computing Atmospheric mass density...
Loading historical data...
Loading historical data...
Loading historical data...
Loading historical data...
Loading historical data...
Loading historical data...
Loading historical data...
Other satellites on launch #39 in the year 1976 (1976-05-04 UTC)

Documentation

Showing up to 5 results
|